Reflectivity
-20 -20 -20 -20 -20 -20 -20 -20 -20 -20 -20 -20 -20 -20 -20 -20 -20 -20 -20 -20 -20 -20 -20 -20 -20 -20 -20 -20 -20 -20 -20 -20 -20 -20 -20 -20 -20 -20 -20 -20 -20 -20 -20 -20 -20 -20 -20 -20 -20
-20 -20 -20 -20 -20 -20 -20 -20 -20 -20 -20 -20 -20 -20 -20 -20 -20 -20 -20 -20 -20 -20 -20 -20 -20 -20 -20 -20 -20 -20 -20 -20 -20 -20 -20 -20 -20 -20 -20 -20 -20 -20 -20 -20 -20 -20 -20 -20 -20
-20 -20 -20 -20 -20 -20 -20 -20 -20 -20 -20 -20 -20 -20 -20 -20 -20 -20 -20 -20 -20 -20 -20 -20 -20 -20 -20 -20 -20 -20 -20 -20 -20 -20 -20 -20 -20 -20 -20 -20 -20 -20 -20 -20 -20 -20 -20 -20 -20
-20 -20 -20 -20 -20 -20 -20 -20 -20 -20 -20 -20 -20 -20 -20 -20 -20 -20 -20 -20 -20 -20 -20 -20 -20 -20 -20 -20 -20 -20 -20 -20 -20 -20 -20 -20 -20 -20 -20 -20 -20 -20 -20 -20 -20 -20 -20 -20 -20
-20 -20 -20 -20 -20 -20 -20 -20 -20 -20 -20 -20 -20 -20 -20 -20 -20 -20 -20 -20 -20 -20 -20 -20 -20 -20 -20 -20 -20 -20 -20 -20 -20 -20 -20 -20 -20 -20 -20 -20 -20 -20 -20 -20 -20 -20 -20 -20 -20
-20 -20 -20 -20 -20 -20 -20 -20 -20 -20 -20 -20 -20 -20 -20 -20 -20 -20 -20 -20 -20 -20 -20 -20 -20 -20 -20 -20 -20 -20 -20 -20 -20 -20 -20 -20 -20 -20 -20 -20 -20 -20 -20 -20 -20 -20 -20 -20 -20
-20 -20 -20 -20 -20 -20 -20 -20 -20 -20 -20 -20 -20 -20 -20 -20 -20 -20 -20 -20 -20 -20 -20 -20 -20 -20 -20 -20 -20 -20 -20 -20 -20 -20 -20 -20 -20 -20 -20 -20 -20 -20 -20 -20 -20 -20 -20 -20 -20
-20 -20 -20 -20 -20 -20 -20 -20 -20 -20 -20 -20 -20 -20 -20 -20 -20 -20 -20 -20 -20 -20 -20 -20 -20 -20 -20 -20 -20 -20 -20 -20 -20 -20 -20 -20 -20 -20 -20 -20 -20 -20 -20 -20 -20 -20 -20 -20 -20
-20 -20 -20 -20 -20 -20 -20 -20 -20 -20 -20 -20 -20 -20 -20 -20 -20 -20 -20 -20 -20 -20 -20 -20 -20 -20 -20 -20 -20 -20 -20 -20 -20 -20 -20 -20 -20 -20 -20 -20 -20 -20 -20 -20 -20 -20 -20 -20 -20
-20 -20 -20 -20 -20 -20 -20 -20 -20 -20 -20 -20 -20 -20 -20 -20 -20 -20 -20 -20 -20 -20 -20 -20 -20 -20 -20 -20 -20 -20 -20 -20 -20 -20 -20 -20 -20 -20 -20 -20 -20 -20 -20 -20 -20 -20 -20 -20 -20
-20 -20 -14 -19 -7 -20 -20 -20 -20 -20 -20 -20 -20 -20 -20 -20 -20 -20 -20 -20 -20 -20 -20 -20 -20 -20 -20 -20 -20 -20 -20 -20 -20 -20 -20 -20 -20 -20 -20 -20 -20 -20 -20 -20 -20 -20 -20 -20 -20
-20 -20 -20 -20 -20 -20 -20 -20 -20 -20 -20 -20 -20 -20 -20 -20 -20 -20 -20 -20 -20 -20 -20 -20 -20 -20 -20 -20 -20 -20 -20 -20 -20 -20 -4 -20 -20 -20 -20 -20 -20 -20 -20 -20 -20 -17 -20 -20 -20
-20 -20 -20 -20 -20 -20 -20 -20 -20 -20 -20 -20 -20 -20 -20 -20 -20 -20 -20 -20 -20 -20 -20 -20 -20 -20 -20 -20 -20 -20 -20 -20 -20 -20 -20 -20 -20 -20 -20 -20 -20 -20 -20 -20 -20 -18 -20 -20 -20
-20 -20 -20 -20 -20 -20 -20 -20 -20 -20 -20 -20 -20 -20 -20 -20 -20 -20 -20 -20 -20 -20 -20 -20 -20 -20 -20 -20 -20 -20 -20 -20 -20 -20 -20 -20 -20 -20 -20 -20 -20 -20 -20 -20 -20 -20 -13 -20 -13
-20 -20 -20 -20 -20 -20 -20 -20 -20 -20 -20 -20 -20 -20 -20 -20 -20 -20 -20 -20 -20 -20 -20 -20 -20 -20 -20 -20 -20 -20 -20 -20 -20 -17 -20 -20 -20 -20 -20 -20 -20 -20 -20 -20 -20 -20 -20 -16 -7
-20 -20 -20 -20 -20 -20 -20 -20 -20 -20 -20 -20 -20 -20 -20 -20 -20 -20 -20 -20 -20 -20 -20 -20 -20 -20 -20 -20 -20 -20 -20 -20 -20 -10 -17 -4 -20 -20 -20 -20 -20 -20 -20 -20 -20 -20 -11 -20 -13
-20 -20 -20 -20 -20 -20 -20 -20 -20 -20 -20 -20 -20 -20 -20 -20 -20 -20 -20 -20 -20 -20 -20 -20 -20 -20 -20 -20 -20 -20 -20 -20 -20 -20 -20 -20 -20 -20 -20 -20 -20 -20 -20 -20 -20 -15 10 -8 -12
-20 -20 -20 -20 -20 -20 -20 -20 -20 -20 -20 -20 -20 -20 -20 -20 -20 -20 -20 -20 -20 -20 -20 -20 -20 -20 -20 -20 -20 -20 -20 -20 -20 -20 -20 -20 -20 -20 -20 -20 -20 -20 -20 -20 7 -14 -4 -20 -1
-20 -20 -20 -20 -20 -20 -20 -20 -20 -20 -20 -20 -20 -20 -20 -20 -20 -20 -20 -20 -20 -20 -20 -20 -20 -20 -20 -20 -20 -20 -20 -20 -20 -20 -20 -20 -20 -20 -20 -20 -20 -20 -20 -20 -20 -20 -11 -3 -8
-20 -20 -20 -20 -20 -4 -20 -20 -20 -20 -20 -20 -20 -20 -20 -20 -20 -20 -20 -20 -20 -20 -20 -20 -20 -20 -20 -20 -20 -20 -20 -20 -20 -20 -20 -20 -20 -20 -20 -20 -20 -20 -20 -11 7 6 12 -12 -10
-20 -20 -20 -20 -20 -20 -20 -20 -20 -20 -20 -20 -20 -20 -20 -20 -20 -20 -20 -20 -20 -20 -20 -20 -20 -20 -20 -20 -20 -20 -20 -20 -20 -20 -20 -20 -20 -20 -20 -20 -20 5 -16 0 -1 1 -1 5 -10
-20 -20 -20 -20 1 -15 -20 -20 -20 -20 -20 -20 -20 -20 -20 -20 -20 -20 -20 -20 -20 -20 -20 -20 -20 -20 -20 -20 -20 -20 -20 -20 -20 -20 -20 -20 -20 -20 -20 -20 -20 24 2 7 16 8 -2 -4 -16
3 -20 -20 6 14 0 -2 -20 -20 -20 -20 -20 -20 -20 -20 -20 -20 -20 -20 -20 -20 -20 -20 -20 -20 -20 -20 -20 -20 -20 -20 -20 -20 -20 -20 -20 -20 -20 -19 7 9 10 -20 -20 -20 -20 -15 13 -19
-20 -7 11 1 13 15 0 -20 -20 -20 -20 -20 -20 -20 -20 -20 -20 -20 -20 -20 -20 -20 -20 -20 -20 -17 -20 -20 -20 -20 -20 -20 -20 -20 -20 -15 4 6 5 -16 -13 -16 -6 -16 -20 -20 -20 4 -7
24 18 23 25 27 27 -7 -20 -20 -20 -20 -20 -20 -20 -20 -20 -20 -20 -20 -20 -20 -20 -20 -20 -20 -20 -20 -20 -20 -20 -20 -20 -20 -20 -14 -20 -20 -20 -20 -7 -3 -8 -20 -20 -20 -20 -20 -20 -20
6 21 33 10 5 -20 -20 13 -20 -20 -20 -20 -20 -20 -20 -20 -20 -20 -20 -20 -20 -20 -20 -20 -20 -20 -20 -20 -20 -20 -20 -20 -20 -20 -20 -10 -20 -20 -3 -2 7 7 -20 -20 -20 -20 -20 -20 -20
7 14 5 -19 -17 -1 -19 -20 -20 -20 -20 -20 -20 -20 -20 -20 -20 -20 -20 -20 -20 -20 -20 -20 -20 -20 -20 -20 -20 -20 -19 -20 -4 -10 -20 -15 -20 -20 -17 25 14 0 -20 -20 -20 -20 -20 -20 -20
23 28 1 13 28 31 -17 -20 -20 -20 -20 -20 -20 -20 -20 -20 -20 -20 -20 -20 -20 -20 -20 -20 -20 -20 -20 -20 3 -20 -11 9 -7 -12 -20 6 -20 -20 -16 -20 -6 -20 -20 -20 -20 -20 -20 -20 -20
40 33 29 26 31 13 -20 -20 -20 -20 -20 -20 -20 -20 -20 -20 -20 -20 -20 -20 -20 -20 -20 -20 -20 -20 -20 -7 8 6 -10 -18 7 -12 -20 -20 -20 -20 -20 -20 -20 -20 -20 -20 -20 -20 -20 -20 -20
32 26 34 33 32 10 -20 -12 -20 -20 -20 -20 -19 -20 -20 -20 -20 -20 -20 -20 -20 -20 -20 -20 -20 -20 -20 -20 -20 -19 -3 8 -20 -17 -20 -20 -20 -20 -20 -20 -20 -20 -20 -20 -20 -20 -20 -20 -20
Wind_Speed
9 12 11 7 9 10 17 6 5 6 8 1 6 7 7 5 7 3 6 7 22 23 21 18 17 17 16 17 17 18 16 15 14 14 14 14 13 12 12 11 11 12 12 12 12 12 12 12 11
14 12 7 9 11 14 14 10 9 3 3 1 5 7 7 3 11 10 10 8 20 21 19 19 16 18 18 18 18 18 17 16 15 14 14 14 13 13 12 11 9 10 12 12 12 11 11 10 9
16 12 10 8 14 16 5 10 3 2 5 8 8 8 1 8 3 11 12 14 20 20 19 18 16 17 18 19 19 19 18 17 15 15 14 14 13 13 13 11 9 9 10 12 12 11 10 8 7
9 9 10 12 18 18 5 7 3 7 7 8 4 8 6 5 5 4 15 18 19 20 20 19 15 17 18 19 19 20 19 17 15 15 14 14 14 13 12 10 10 9 10 11 12 10 9 7 6
10 11 13 15 19 4 5 4 2 5 10 11 9 7 4 6 7 12 15 17 18 19 19 19 13 15 17 18 18 19 18 17 16 15 14 13 14 13 12 9 10 10 9 10 11 10 8 7 6
10 12 15 16 18 9 11 7 5 5 11 11 7 4 8 13 12 13 15 16 17 18 19 18 14 14 14 15 16 17 17 16 15 15 14 13 13 13 12 10 9 10 9 8 9 8 7 5 4
17 13 16 20 11 13 14 10 10 5 11 11 7 13 9 12 13 13 16 17 18 16 16 17 17 15 12 12 13 14 14 14 14 13 13 12 11 12 11 10 9 9 9 8 8 8 6 4 3
14 14 20 18 12 11 15 12 11 9 13 6 4 6 13 15 16 15 16 17 18 17 17 17 17 16 15 14 12 13 13 12 12 12 12 11 10 10 10 10 8 9 9 8 7 6 5 4 3
11 15 15 19 15 9 9 13 9 3 10 9 13 3 5 19 17 16 15 16 16 15 17 17 17 16 15 14 12 12 11 12 11 10 10 11 10 12 12 9 14 9 8 7 7 7 5 5 6
16 14 19 14 5 9 10 14 12 13 16 10 10 6 8 17 18 18 18 17 19 19 20 19 18 17 16 13 15 14 13 12 12 13 13 10 10 10 11 12 11 9 8 7 6 6 7 10 9
20 21 17 10 6 8 9 11 12 12 16 15 17 17 15 15 17 18 18 19 19 19 17 20 18 17 17 13 12 9 9 10 10 14 13 11 9 9 8 8 8 8 9 8 8 8 9 12 3
24 21 23 16 8 12 13 13 17 14 17 11 6 4 18 18 18 18 19 17 19 20 21 20 21 17 16 12 12 12 11 11 10 13 14 10 7 9 9 7 9 9 9 10 10 10 3 3 5
25 23 18 18 14 13 12 14 16 18 18 16 11 8 13 17 18 17 17 18 18 20 20 20 20 17 16 14 13 12 12 11 12 12 13 12 10 8 9 8 9 9 10 9 7 5 5 7 6
24 21 23 20 17 18 15 16 16 20 19 19 16 15 17 18 18 17 17 16 18 19 20 20 21 18 17 15 13 10 10 12 7 9 12 14 9 8 9 8 9 8 7 7 7 7 6 5 6
24 25 18 25 19 19 18 21 22 24 15 19 22 17 17 18 17 19 18 17 19 18 20 21 21 19 18 18 14 12 12 10 8 8 6 12 12 9 9 9 8 8 7 6 6 6 6 2 2
23 23 27 24 21 19 19 20 23 24 20 20 19 19 19 20 18 18 18 18 18 19 21 20 18 20 19 17 14 12 10 10 11 8 8 13 15 12 11 9 8 7 6 8 7 5 4 4 5
24 27 32 26 26 23 25 24 23 18 22 22 21 22 21 21 22 20 20 18 17 19 20 20 20 20 20 17 13 13 12 12 11 12 12 16 16 14 11 10 9 9 8 8 5 4 5 5 7
26 31 24 27 26 27 25 28 20 18 21 22 21 21 23 23 23 21 20 19 18 17 18 19 17 19 18 13 12 12 11 12 11 12 12 15 13 14 12 10 9 10 9 4 5 6 3 7 4
27 29 29 26 24 23 27 28 25 25 19 16 21 21 22 23 24 22 20 17 17 16 19 20 21 19 16 15 15 13 13 12 12 12 13 13 13 14 12 9 10 10 8 7 8 8 8 3 3
32 31 31 24 19 23 20 27 25 26 25 23 22 21 21 21 21 21 22 19 18 19 19 21 23 22 19 15 13 12 12 12 12 11 12 13 14 13 12 11 10 11 9 7 5 6 6 5 5
33 32 30 26 21 19 17 24 27 26 27 25 25 23 23 22 21 20 21 20 20 19 19 21 24 24 20 20 13 12 12 11 12 12 11 13 15 13 14 13 10 9 8 5 7 7 8 5 1
34 35 28 29 23 20 24 23 27 29 29 27 28 27 26 26 25 23 23 24 19 20 18 22 22 24 21 22 18 19 15 15 13 12 12 12 15 15 15 14 11 8 7 7 6 3 3 4 4
36 24 28 26 23 26 24 23 24 26 30 33 33 32 31 29 29 27 27 26 25 21 19 19 22 22 22 22 19 16 16 12 12 11 15 13 13 15 15 11 9 6 4 5 7 6 6 4 4
32 23 22 23 20 21 33 27 31 25 33 28 29 29 29 29 29 28 28 27 24 21 20 19 22 22 23 23 22 20 20 16 13 14 13 9 7 6 8 8 8 8 8 8 7 8 10 7 5
27 16 9 12 13 18 32 23 32 11 31 38 30 24 24 23 22 22 25 26 24 24 23 20 23 23 23 24 24 20 20 18 18 17 11 11 8 7 9 11 10 8 7 8 8 7 7 6 5
34 29 9 17 21 28 23 16 46 32 28 6 4 11 12 16 19 23 24 22 23 21 20 20 22 23 23 23 24 20 19 13 12 15 12 9 9 10 13 12 11 11 11 9 8 7 6 6 5
33 27 32 10 15 22 21 38 41 28 29 33 25 21 22 25 20 20 22 20 21 21 16 19 20 22 22 23 20 20 18 17 14 16 15 11 12 11 12 12 12 13 13 12 10 8 8 7 6
10 25 24 12 9 10 20 33 26 25 29 24 19 18 20 18 19 18 17 18 18 18 18 17 19 21 20 20 19 17 17 14 15 16 16 17 13 15 14 15 16 15 13 12 10 9 9 9 6
4 6 5 8 7 14 19 23 19 25 15 17 21 19 17 14 13 16 11 6 10 15 16 17 18 20 18 17 16 14 12 13 16 16 16 17 17 17 17 17 16 15 14 12 10 9 9 8 7
17 9 8 7 8 12 13 14 12 4 5 6 4 6 7 5 10 12 14 9 8 10 10 13 15 17 12 15 13 13 13 16 16 16 18 18 18 18 17 17 16 15 13 12 12 11 9 9 8
Wind_Direction
190 212 231 236 240 235 241 199 322 181 196 176 347 230 254 320 351 72 146 100 130 133 148 148 133 133 136 138 137 135 137 141 138 135 127 125 120 113 106 105 108 110 110 109 106 104 101 100 99
225 212 232 266 249 228 227 110 202 150 69 212 233 217 258 238 76 109 117 172 149 141 152 147 137 137 140 138 137 137 140 143 139 136 132 127 123 118 115 107 112 116 119 118 112 107 103 104 102
260 228 253 223 236 261 241 144 132 137 163 191 187 222 170 71 80 131 100 155 149 148 161 136 141 140 140 142 140 140 144 141 141 136 134 129 127 123 117 118 116 122 126 126 117 112 110 108 100
216 209 250 253 244 242 341 123 133 213 153 188 164 183 107 30 138 122 140 164 153 154 163 135 143 142 144 143 144 145 144 142 141 136 136 135 133 128 124 130 127 133 130 127 122 120 115 105 100
241 251 243 224 245 251 236 80 209 217 168 188 178 134 109 133 105 126 154 158 157 159 143 151 146 144 147 147 147 145 144 142 142 139 138 142 137 132 135 137 132 131 131 135 132 129 128 128 133
225 241 244 239 226 180 221 174 225 225 185 178 200 193 104 126 142 142 154 157 161 161 137 151 148 144 143 145 147 145 143 142 141 142 141 144 141 139 141 143 136 134 134 138 135 129 134 139 145
243 229 246 261 278 161 216 191 208 222 196 179 220 206 110 157 143 148 154 159 160 156 151 158 166 152 137 140 143 138 140 142 143 143 141 143 147 145 145 146 144 140 144 146 139 134 141 141 133
243 261 264 255 263 231 194 182 223 228 216 75 209 225 162 165 147 153 158 161 162 158 162 166 170 169 166 162 138 139 140 141 143 143 142 144 143 147 149 147 155 152 152 151 144 142 152 159 161
239 256 245 243 220 245 159 213 171 274 270 205 183 330 85 148 157 164 163 166 167 164 174 170 173 173 171 171 154 142 139 140 138 145 141 150 174 177 160 185 145 159 156 154 154 157 173 199 203
230 233 242 276 242 238 185 221 209 214 216 209 192 127 149 152 169 172 176 177 179 179 179 173 175 175 174 177 162 173 167 174 178 180 171 186 185 190 182 142 145 156 158 158 165 180 200 222 209
219 240 237 254 268 248 222 224 253 239 248 212 191 170 170 171 182 185 184 184 187 183 182 178 176 175 180 183 167 179 176 180 187 188 179 206 191 184 189 152 168 176 184 185 186 192 220 219 303
231 239 240 263 226 245 232 228 234 229 255 256 109 150 174 184 189 194 189 189 185 184 186 185 180 174 185 184 172 185 182 189 187 189 182 209 201 179 204 181 187 196 175 218 195 195 142 212 217
228 242 245 238 250 228 242 244 251 250 238 255 179 203 214 193 194 199 200 185 188 184 186 189 187 178 184 201 182 196 193 189 192 183 182 209 200 188 199 197 195 198 182 209 208 138 194 200 198
232 239 250 248 225 235 233 237 240 248 245 238 226 216 222 201 198 193 205 195 184 184 185 187 191 183 187 200 186 198 200 180 191 198 187 208 202 184 202 201 210 205 207 205 215 218 198 223 215
247 248 244 241 219 233 232 236 230 246 242 232 233 216 227 209 206 201 202 204 186 187 185 190 191 185 193 196 194 196 191 158 182 194 188 199 213 186 214 208 211 212 201 214 215 233 237 170 289
237 236 243 228 218 231 233 240 218 234 234 228 232 222 220 222 211 210 195 207 196 188 187 191 193 187 191 193 196 198 172 206 176 194 185 198 215 213 207 211 206 213 202 205 208 213 210 246 228
224 227 227 236 218 215 211 240 243 241 214 225 226 222 222 219 215 212 201 201 207 189 185 187 192 196 190 195 191 195 184 202 188 194 198 193 212 210 204 213 203 210 211 215 212 213 189 216 226
210 224 238 231 226 228 225 231 244 233 231 220 223 218 221 224 220 212 215 197 200 192 186 184 183 194 188 189 202 191 194 194 199 196 203 183 202 202 205 214 203 207 217 202 214 223 207 241 203
235 231 227 232 241 224 220 246 224 238 225 227 222 219 216 224 222 216 209 213 205 197 188 183 187 187 187 193 193 191 196 194 202 197 197 186 195 195 196 219 200 201 209 198 198 209 237 243 266
228 237 238 235 219 230 234 244 242 240 226 219 213 231 220 217 225 224 217 201 206 207 192 191 194 188 192 196 196 198 196 193 199 192 189 191 195 194 195 214 199 195 213 220 221 213 227 229 223
224 230 231 241 206 238 239 253 250 251 243 230 236 226 224 228 219 222 220 211 196 211 202 196 196 193 192 200 194 196 193 193 192 191 190 191 195 193 202 203 210 190 208 213 220 217 217 225 51
230 219 233 238 235 223 194 248 241 237 239 235 233 231 231 234 227 224 230 219 194 205 214 201 195 197 193 198 193 196 196 192 191 189 189 186 191 193 194 198 206 205 199 211 204 199 166 136 157
235 229 222 237 241 241 232 236 246 245 241 231 230 227 226 224 232 236 229 232 213 196 204 210 200 196 195 191 205 193 202 196 183 190 181 183 185 192 193 194 193 167 140 130 141 132 145 159 149
228 232 237 226 231 237 239 239 260 241 244 245 239 236 234 233 223 224 241 233 233 199 194 202 203 197 196 190 202 197 195 191 183 183 180 170 157 147 142 137 141 138 148 143 148 163 175 199 191
226 198 203 219 220 224 228 228 244 279 228 240 237 234 235 239 241 230 231 237 230 224 182 195 200 203 194 188 190 205 192 202 184 175 162 153 144 145 152 143 147 151 149 149 154 156 142 161 163
218 197 188 192 203 225 217 219 237 225 248 307 212 253 255 250 239 228 234 229 234 225 173 190 203 204 194 189 189 197 197 199 186 164 156 161 160 151 151 144 146 145 148 145 139 134 130 118 121
209 221 207 248 226 223 218 223 256 249 235 236 239 234 241 241 242 239 228 230 220 233 193 186 206 204 195 188 187 191 191 195 158 161 154 156 151 150 155 146 141 144 146 149 145 138 137 133 137
253 205 207 218 195 219 211 217 239 222 236 241 241 242 238 239 230 244 250 220 226 219 199 184 203 207 199 187 186 188 184 184 155 149 159 159 145 143 145 144 151 150 148 147 144 143 145 144 140
143 204 215 188 231 209 231 230 230 228 195 200 204 226 232 219 232 217 222 237 217 223 220 175 191 205 193 178 182 173 162 156 143 147 148 142 146 149 153 155 151 149 148 146 145 144 146 139 137
205 219 179 203 177 243 247 261 142 354 214 162 272 228 208 226 212 215 238 154 226 204 189 184 191 199 163 165 162 161 154 148 143 152 151 150 150 155 155 152 150 151 148 149 150 149 149 147 154